EA1QW Weather Reports


Display with metric or nautical units.
time (UTC)temp
F
wind
direction
speed
MPH
gust
MPH
rain 1hr
in
rain 24hr
in
rain mn
in
humidity
%
barometer
mb
20260901193019 70 61 0.0 4.0 0.00 0.00 0.00 86 1020.3
20260901192549 70 61 0.0 4.0 0.00 0.00 0.00 85 1020.2
20260901192018 70 61 3.0 6.0 0.00 0.00 0.00 85 1020.2
20260901191530 70 61 1.0 6.0 0.00 0.00 0.00 84 1020.2
20260901191040 70 65 0.0 4.0 0.00 0.00 0.00 83 1020.2
20260901190510 70 65 2.0 5.0 0.00 0.00 0.00 82 1020.2
20260901190021 70 65 1.0 5.0 0.00 0.00 0.00 82 1020.1
20260901185514 71 91 2.0 7.0 0.00 0.00 0.00 82 1020.0
20260901185025 71 101 3.0 9.0 0.00 0.00 0.00 82 1020.0
20260901184516 71 89 4.0 9.0 0.00 0.00 0.00 82 1020.0
20260901184049 71 75 4.0 8.0 0.00 0.00 0.00 82 1020.0
20260901183519 71 90 2.0 8.0 0.00 0.00 0.00 81 1020.1
20260901183051 71 41 3.0 10.0 0.00 0.00 0.00 81 1020.1
20260901182541 72 76 3.0 10.0 0.00 0.00 0.00 80 1020.1
20260901182042 72 58 4.0 9.0 0.00 0.00 0.00 80 1020.2
20260901181511 72 46 3.0 10.0 0.00 0.00 0.00 80 1020.2
20260901181023 72 92 6.0 14.0 0.00 0.00 0.00 80 1020.2
20260901180533 72 85 6.0 14.0 0.00 0.00 0.00 81 1020.1
20260901180021 72 67 5.0 12.0 0.00 0.00 0.00 80 1020.1
20260901175510 72 57 4.0 15.0 0.00 0.00 0.00 81 1020.1
20260901175018 72 87 8.0 15.0 0.00 0.00 0.00 82 1020.0
20260901174525 72 49 6.0 12.0 0.00 0.00 0.00 82 1020.1
20260901174018 72 78 5.0 13.0 0.00 0.00 0.00 82 1020.1
20260901173548 72 27 8.0 13.0 0.00 0.00 0.00 81 1020.2
20260901173016 72 28 8.0 13.0 0.00 0.00 0.00 80 1020.1
20260901172528 72 79 6.0 14.0 0.00 0.00 0.00 80 1020.0
20260901172019 72 51 7.0 15.0 0.00 0.00 0.00 80 1020.0
20260901171511 72 32 5.0 15.0 0.00 0.00 0.00 80 1020.0
20260901171021 72 49 5.0 13.0 0.00 0.00 0.00 81 1019.9
20260901170530 72 55 6.0 13.0 0.00 0.00 0.00 81 1019.9
20260901170017 72 53 7.0 14.0 0.00 0.00 0.00 80 1019.7
20260901165525 72 76 7.0 13.0 0.00 0.00 0.00 80 1019.7
20260901165013 72 14 8.0 13.0 0.00 0.00 0.00 80 1019.7
20260901164521 73 53 10.0 14.0 0.00 0.00 0.00 79 1019.6
20260901164010 73 53 6.0 14.0 0.00 0.00 0.00 79 1019.6
20260901163519 73 40 4.0 17.0 0.00 0.00 0.00 80 1019.6
20260901163026 73 34 7.0 17.0 0.00 0.00 0.00 79 1019.6
20260901162535 73 44 8.0 14.0 0.00 0.00 0.00 80 1019.6
20260901162042 72 22 9.0 14.0 0.00 0.00 0.00 80 1019.4
20260901161530 72 12 9.0 20.0 0.00 0.00 0.00 80 1019.4
20260901161015 73 42 11.0 20.0 0.00 0.00 0.00 79 1019.4
20260901160524 73 89 9.0 15.0 0.00 0.00 0.00 80 1019.4
20260901160012 73 79 8.0 18.0 0.00 0.00 0.00 79 1019.4
20260901155521 73 63 9.0 19.0 0.00 0.00 0.00 79 1019.4
20260901155010 73 50 10.0 19.0 0.00 0.00 0.00 78 1019.2
20260901154518 73 28 10.0 17.0 0.00 0.00 0.00 78 1019.1
20260901154026 73 69 7.0 18.0 0.00 0.00 0.00 77 1019.0
20260901153515 73 50 10.0 19.0 0.00 0.00 0.00 76 1018.9
20260901153023 73 116 8.0 19.0 0.00 0.00 0.00 77 1018.8
20260901152512 74 20 9.0 15.0 0.00 0.00 0.00 77 1018.8
20260901152018 74 24 9.0 14.0 0.00 0.00 0.00 76 1018.8
20260901151526 73 90 6.0 18.0 0.00 0.00 0.00 78 1018.9
20260901151015 73 44 7.0 19.0 0.00 0.00 0.00 77 1018.9
20260901150543 73 24 12.0 19.0 0.00 0.00 0.00 78 1018.8
20260901150011 73 44 12.0 21.0 0.00 0.00 0.00 77 1018.9
20260901145519 73 54 11.0 21.0 0.00 0.00 0.00 77 1019.0
20260901145027 73 66 11.0 20.0 0.00 0.00 0.00 77 1019.0
20260901144515 73 57 11.0 21.0 0.00 0.00 0.00 77 1019.0
20260901144045 73 26 13.0 21.0 0.00 0.00 0.00 77 1019.2
20260901143511 73 24 9.0 18.0 0.00 0.00 0.00 79 1019.1
20260901143016 73 39 9.0 19.0 0.00 0.00 0.00 78 1019.1
20260901142526 73 57 7.0 18.0 0.00 0.00 0.00 78 1019.1
20260901142013 74 87 11.0 18.0 0.00 0.00 0.00 77 1019.1
20260901141522 73 96 7.0 18.0 0.00 0.00 0.00 77 1019.1
20260901141012 73 57 10.0 18.0 0.00 0.00 0.00 76 1019.1
20260901140520 74 355 8.0 17.0 0.00 0.00 0.00 77 1019.1
20260901140029 74 74 8.0 18.0 0.00 0.00 0.00 76 1019.1
20260901135523 73 73 9.0 18.0 0.00 0.00 0.00 76 1019.1
20260901135014 73 88 6.0 17.0 0.00 0.00 0.00 77 1019.1
20260901134523 73 43 8.0 16.0 0.00 0.00 0.00 77 1019.2
20260901134013 72 78 10.0 16.0 0.00 0.00 0.00 78 1019.3
20260901133525 72 48 12.0 19.0 0.00 0.00 0.00 78 1019.3
20260901133036 72 67 10.0 19.0 0.00 0.00 0.00 79 1019.4
20260901132527 73 21 11.0 18.0 0.00 0.00 0.00 77 1019.4
20260901132019 73 29 7.0 18.0 0.00 0.00 0.00 76 1019.3
20260901131512 74 51 8.0 17.0 0.00 0.00 0.00 75 1019.3
20260901131038 74 25 7.0 15.0 0.00 0.00 0.00 75 1019.4
20260901130512 74 42 8.0 20.0 0.00 0.00 0.00 74 1019.3
20260901130025 73 54 7.0 20.0 0.00 0.00 0.00 75 1019.3
20260901125515 73 66 8.0 17.0 0.00 0.00 0.00 75 1019.4
20260901125028 73 87 7.0 15.0 0.00 0.00 0.00 76 1019.6
20260901124536 73 36 10.0 15.0 0.00 0.00 0.00 78 1019.7
20260901124025 72 17 6.0 16.0 0.00 0.00 0.00 79 1019.9
20260901123515 72 24 11.0 17.0 0.00 0.00 0.00 78 1020.1
20260901123022 72 44 6.0 17.0 0.00 0.00 0.00 80 1020.1
20260901122512 71 26 7.0 16.0 0.00 0.00 0.00 83 1020.1
20260901122041 71 39 9.0 16.0 0.00 0.00 0.00 82 1020.2
20260901121510 71 55 7.0 15.0 0.00 0.00 0.00 82 1020.3
20260901121020 72 46 10.0 15.0 0.00 0.00 0.00 81 1020.4
20260901120510 72 67 5.0 15.0 0.00 0.00 0.00 81 1020.4
20260901120040 72 48 8.0 16.0 0.00 0.00 0.00 80 1020.4
20260901115511 72 37 7.0 16.0 0.00 0.00 0.00 80 1020.2
20260901115022 72 20 9.0 15.0 0.00 0.00 0.00 79 1020.3
20260901114511 72 62 10.0 16.0 0.00 0.00 0.00 79 1020.3
20260901114020 72 39 9.0 18.0 0.00 0.00 0.00 80 1020.3
20260901113529 72 51 10.0 18.0 0.00 0.00 0.00 79 1020.2
20260901113021 72 49 8.0 19.0 0.00 0.00 0.00 80 1020.2
20260901112533 71 51 11.0 19.0 0.00 0.00 0.00 79 1020.3
20260901112043 71 69 8.0 15.0 0.00 0.00 0.00 80 1020.2
20260901111511 71 48 6.0 14.0 0.00 0.00 0.00 80 1020.3
20260901111017 71 52 6.0 13.0 0.00 0.00 0.00 79 1020.3
20260901110508 71 34 9.0 15.0 0.00 0.00 0.00 79 1020.4
20260901110019 71 58 6.0 15.0 0.00 0.00 0.00 79 1020.3
20260901105510 71 14 6.0 15.0 0.00 0.00 0.00 78 1020.3
20260901105022 72 26 9.0 17.0 0.00 0.00 0.00 77 1020.2
20260901104514 72 45 7.0 14.0 0.00 0.00 0.00 76 1020.3
20260901104026 72 24 7.0 13.0 0.00 0.00 0.00 77 1020.3
20260901103539 72 104 8.0 13.0 0.00 0.00 0.00 77 1020.3
20260901103008 72 52 7.0 14.0 0.00 0.00 0.00 76 1020.3
20260901102538 73 28 7.0 14.0 0.00 0.00 0.00 76 1020.3
20260901102026 73 22 7.0 15.0 0.00 0.00 0.00 76 1020.2
20260901101516 73 5 8.0 14.0 0.00 0.00 0.00 74 1020.4
20260901101007 73 51 6.0 14.0 0.00 0.00 0.00 70 1020.4
20260901100516 73 42 9.0 14.0 0.00 0.00 0.00 70 1020.5
20260901100006 73 76 8.0 13.0 0.00 0.00 0.00 71 1020.4
20260901095517 73 81 5.0 10.0 0.00 0.00 0.00 72 1020.4
20260901095026 72 36 4.0 11.0 0.00 0.00 0.00 73 1020.4
20260901094517 72 107 6.0 11.0 0.00 0.00 0.00 73 1020.3
20260901094026 72 90 5.0 12.0 0.00 0.00 0.00 73 1020.2
20260901093514 72 86 9.0 12.0 0.00 0.00 0.00 74 1020.2
20260901093023 72 49 4.0 13.0 0.00 0.00 0.00 77 1020.2
20260901092515 71 39 7.0 13.0 0.00 0.00 0.00 74 1020.3
20260901092025 72 42 5.0 13.0 0.00 0.00 0.00 74 1020.3
20260901091515 72 56 8.0 13.0 0.00 0.00 0.00 74 1020.3
20260901091011 72 76 4.0 12.0 0.00 0.00 0.00 75 1020.3
20260901090514 71 77 5.0 10.0 0.00 0.00 0.00 75 1020.4
20260901090007 71 58 4.0 10.0 0.00 0.00 0.00 76 1020.4
20260901085535 70 99 6.0 10.0 0.00 0.00 0.00 77 1020.2
20260901085010 70 39 4.0 9.0 0.00 0.00 0.00 79 1020.2
20260901063025 60 49 0.0 0.0 0.00 0.00 0.00 97 1019.6
20260901062513 60 49 0.0 0.0 0.00 0.00 0.00 96 1019.5
20260901062022 60 49 0.0 0.0 0.00 0.00 0.00 96 1019.5
20260901061510 60 49 0.0 0.0 0.00 0.00 0.00 96 1019.6
20260901061014 60 49 0.0 0.0 0.00 0.00 0.00 96 1019.5
20260901060522 60 49 0.0 0.0 0.00 0.00 0.00 96 1019.5
20260901060011 60 49 0.0 0.0 0.00 0.00 0.00 96 1019.5
20260901055519 60 49 0.0 0.0 0.00 0.00 0.00 96 1019.5
20260901055008 60 49 0.0 0.0 0.00 0.00 0.00 96 1019.4
20260901054516 61 49 0.0 0.0 0.00 0.00 0.00 95 1019.4
20260901054023 61 49 0.0 0.0 0.00 0.00 0.00 95 1019.4
20260901053511 61 49 0.0 0.0 0.00 0.00 0.00 95 1019.5
20260901053020 61 49 0.0 0.0 0.00 0.00 0.00 95 1019.3
20260901052508 61 49 0.0 0.0 0.00 0.00 0.00 95 1019.3
20260901052034 61 49 0.0 0.0 0.00 0.00 0.00 95 1019.2
20260901051522 61 49 0.0 0.0 0.00 0.00 0.00 95 1019.1
20260901051010 61 49 0.0 0.0 0.00 0.00 0.00 95 1019.2
20260901050518 61 49 0.0 0.0 0.00 0.00 0.00 95 1019.2
20260901050047 61 49 0.0 0.0 0.00 0.00 0.00 95 1019.1
20260901045514 62 49 0.0 0.0 0.00 0.00 0.00 95 1019.2
20260901045022 62 49 0.0 0.0 0.00 0.00 0.00 95 1019.1
20260901044511 62 49 0.0 0.0 0.00 0.00 0.00 95 1019.2
20260901044013 62 49 0.0 0.0 0.00 0.00 0.00 95 1019.1
20260901043517 62 49 0.0 0.0 0.00 0.00 0.00 95 1019.2
20260901043046 62 49 0.0 0.0 0.00 0.00 0.00 95 1019.2
20260901042512 62 49 0.0 0.0 0.00 0.00 0.00 95 1019.2
20260901042042 62 49 0.0 0.0 0.00 0.00 0.00 94 1019.2
20260901041509 62 49 0.0 0.0 0.00 0.00 0.00 94 1019.2
20260901041016 62 49 0.0 0.0 0.00 0.00 0.00 94 1019.1
20260901040543 62 49 0.0 0.0 0.00 0.00 0.00 94 1019.1
20260901040010 62 49 0.0 0.0 0.00 0.00 0.00 94 1019.2
20260901035519 63 49 0.0 0.0 0.00 0.00 0.00 94 1019.2
20260901035026 63 49 0.0 0.0 0.00 0.00 0.00 94 1019.1
20260901034513 63 49 0.0 0.0 0.00 0.00 0.00 94 1019.2
20260901034022 63 49 0.0 0.0 0.00 0.00 0.00 93 1019.3
20260901033514 63 49 0.0 0.0 0.00 0.00 0.00 93 1019.3
20260901033021 63 49 0.0 0.0 0.00 0.00 0.00 93 1019.2
20260901032508 63 49 0.0 0.0 0.00 0.00 0.00 93 1019.3
20260901032016 63 49 0.0 0.0 0.00 0.00 0.00 93 1019.3
20260901031525 63 49 0.0 0.0 0.00 0.00 0.00 92 1019.4
20260901031013 63 49 0.0 0.0 0.00 0.00 0.00 92 1019.4
20260901030521 64 49 0.0 0.0 0.00 0.00 0.00 92 1019.5
20260901030010 64 49 0.0 0.0 0.00 0.00 0.00 92 1019.6
20260901025519 64 49 0.0 0.0 0.00 0.00 0.00 92 1019.6
20260901025024 64 49 0.0 0.0 0.00 0.00 0.00 92 1019.7
20260901024513 64 49 0.0 0.0 0.00 0.00 0.00 92 1019.6
20260901024020 64 49 0.0 0.0 0.00 0.00 0.00 92 1019.6
20260901023508 64 49 0.0 0.0 0.00 0.00 0.00 92 1019.7
20260901023036 64 49 0.0 0.0 0.00 0.00 0.00 92 1019.8
20260901022524 64 49 0.0 0.0 0.00 0.00 0.00 92 1019.7
20260901022012 65 49 0.0 0.0 0.00 0.00 0.00 91 1019.9
20260901021520 65 49 0.0 0.0 0.00 0.00 0.00 91 1020.1
20260901021009 65 49 0.0 0.0 0.00 0.00 0.00 91 1020.1
20260901020518 65 49 0.0 0.0 0.00 0.00 0.00 91 1020.1
20260901020026 65 49 0.0 0.0 0.00 0.00 0.00 90 1020.1
20260901015514 65 49 0.0 0.0 0.00 0.00 0.00 90 1020.2
20260901015042 65 49 0.0 0.0 0.00 0.00 0.00 90 1020.2
20260901014510 65 49 0.0 0.0 0.00 0.00 0.00 90 1020.2
20260901014038 65 49 0.0 0.0 0.00 0.00 0.00 89 1020.2
20260901013544 65 49 0.0 0.0 0.00 0.00 0.00 89 1020.2
20260901013011 66 49 0.0 0.0 0.00 0.00 0.00 89 1020.2
20260901012520 66 49 0.0 0.0 0.00 0.00 0.00 89 1020.1
20260901012008 66 49 0.0 0.0 0.00 0.00 0.00 89 1020.2
20260901011537 66 49 0.0 0.0 0.00 0.00 0.00 89 1020.3
20260901011025 66 49 0.0 0.0 0.00 0.00 0.00 89 1020.3
20260901010513 66 49 0.0 0.0 0.00 0.00 0.00 89 1020.4
20260901010042 66 49 0.0 1.0 0.00 0.00 0.00 89 1020.4
20260901005509 66 49 0.0 1.0 0.00 0.00 0.00 89 1020.5
20260901005014 66 49 0.0 0.0 0.00 0.00 0.00 89 1020.5
20260901004522 66 49 0.0 0.0 0.00 0.00 0.00 89 1020.5
20260901004011 66 49 0.0 0.0 0.00 0.00 0.00 89 1020.4
20260901003519 66 49 0.0 0.0 0.00 0.00 0.00 89 1020.4
20260901003008 66 49 0.0 0.0 0.00 0.00 0.00 89 1020.5
20260901002515 66 49 0.0 0.0 0.00 0.00 0.00 89 1020.6
20260901002023 67 49 0.0 1.0 0.00 0.00 0.00 89 1020.7
20260901001512 67 49 0.0 3.0 0.00 0.00 0.00 88 1020.7
20260901001041 67 49 1.0 3.0 0.00 0.00 0.00 88 1020.7
20260901000508 67 49 0.0 2.0 0.00 0.00 0.00 88 1020.8
20260901000016 67 49 1.0 2.0 0.00 0.00 0.00 88 1020.7
20260831235524 67 49 0.0 0.0 0.00 0.00 0.00 87 1020.8
20260831235012 67 49 0.0 0.0 0.00 0.00 0.00 87 1021.0
20260831234542 67 49 0.0 0.0 0.00 0.00 0.00 87 1021.0
20260831234009 67 49 0.0 1.0 0.00 0.00 0.00 87 1020.8
20260831233516 67 49 0.0 1.0 0.00 0.00 0.00 87 1020.8
20260831233024 67 49 0.0 2.0 0.00 0.00 0.00 87 1020.7
20260831232513 67 49 0.0 3.0 0.00 0.00 0.00 87 1020.8
20260831232021 67 49 1.0 4.0 0.00 0.00 0.00 87 1020.8
20260831231510 68 49 0.0 3.0 0.00 0.00 0.00 87 1020.8
20260831231013 68 49 0.0 3.0 0.00 0.00 0.00 87 1020.9
20260831230522 68 49 1.0 4.0 0.00 0.00 0.00 87 1021.0
20260831230010 68 46 2.0 4.0 0.00 0.00 0.00 87 1021.1
20260831225540 68 46 0.0 0.0 0.00 0.00 0.00 88 1021.3
20260831225007 68 46 0.0 0.0 0.00 0.00 0.00 88 1021.4
20260831224515 68 46 0.0 1.0 0.00 0.00 0.00 88 1021.4
20260831224024 68 46 0.0 4.0 0.00 0.00 0.00 87 1021.4
20260831223532 68 46 0.0 6.0 0.00 0.00 0.00 87 1021.5
20260831223020 68 46 1.0 6.0 0.00 0.00 0.00 86 1021.6
20260831222529 68 72 1.0 5.0 0.00 0.00 0.00 86 1021.5
20260831222035 68 73 2.0 4.0 0.00 0.00 0.00 86 1021.5
20260831221521 68 73 2.0 4.0 0.00 0.00 0.00 86 1021.6
20260831221007 68 73 2.0 4.0 0.00 0.00 0.00 86 1021.5
20260831220515 68 73 1.0 3.0 0.00 0.00 0.00 86 1021.5
20260831220024 68 73 0.0 2.0 0.00 0.00 0.00 85 1021.6
20260831215513 68 73 0.0 2.0 0.00 0.00 0.00 85 1021.6
20260831215013 68 73 0.0 0.0 0.00 0.00 0.00 85 1021.6
20260831214542 68 73 0.0 0.0 0.00 0.00 0.00 85 1021.5
20260831214010 68 73 0.0 1.0 0.00 0.00 0.00 85 1021.5
20260831213539 68 73 0.0 2.0 0.00 0.00 0.00 85 1021.6
20260831213046 68 73 0.0 2.0 0.00 0.00 0.00 85 1021.6
20260831212513 68 73 0.0 2.0 0.00 0.00 0.00 85 1021.6
20260831212022 68 73 0.0 2.0 0.00 0.00 0.00 85 1021.6
20260831211510 68 73 0.0 4.0 0.00 0.00 0.00 85 1021.5
20260831211015 68 73 0.0 4.0 0.00 0.00 0.00 85 1021.5
20260831210508 68 73 0.0 3.0 0.00 0.00 0.00 85 1021.6
20260831210017 68 73 1.0 3.0 0.00 0.00 0.00 85 1021.5
20260831205525 68 73 1.0 4.0 0.00 0.00 0.00 85 1021.5
20260831205013 68 73 0.0 4.0 0.00 0.00 0.00 85 1021.5
20260831204543 68 73 0.0 1.0 0.00 0.00 0.00 85 1021.5
20260831204007 68 73 0.0 3.0 0.00 0.00 0.00 85 1021.5
20260831203515 68 73 1.0 4.0 0.00 0.00 0.00 85 1021.5
20260831203021 68 73 2.0 4.0 0.00 0.00 0.00 85 1021.4
20260831202509 68 73 1.0 4.0 0.00 0.00 0.00 84 1021.4
20260831202016 68 73 1.0 4.0 0.00 0.00 0.00 84 1021.5
20260831201524 68 36 0.0 1.0 0.00 0.00 0.00 84 1021.4
20260831201033 68 36 0.0 2.0 0.00 0.00 0.00 84 1021.4
20260831200537 68 36 0.0 3.0 0.00 0.00 0.00 84 1021.4
20260831200008 69 36 0.0 3.0 0.00 0.00 0.00 83 1021.5
20260831195516 69 36 1.0 3.0 0.00 0.00 0.00 83 1021.4
20260831195025 69 36 0.0 2.0 0.00 0.00 0.00 83 1021.4
20260831194513 69 36 0.0 2.0 0.00 0.00 0.00 83 1021.4
20260831194018 69 36 0.0 3.0 0.00 0.00 0.00 83 1021.4
20260831193507 69 36 0.0 3.0 0.00 0.00 0.00 83 1021.4